This is the latest recevied weather packets stored in our database for station/object EA5JUX. If no packets are shown the sender has not sent any weather packets the latest 10 day(s).
| Time | Temp. | Humidity | Pressure | Rain* | Wind** | Luminosity | Snow |
|---|---|---|---|---|---|---|---|
| 1788077534 | 25.56° C | 72% | 1016.7 hPa | 0 mm | - | - | - |
| 1788077234 | 25° C | 71% | 1016.6 hPa | 0 mm | - | - | - |
| 1788076935 | 25° C | 71% | 1016.6 hPa | 0 mm | - | - | - |
| 1788076635 | 24.44° C | 70% | 1016.6 hPa | 0 mm | - | - | - |
| 1788076334 | 25° C | 70% | 1016.6 hPa | 0 mm | - | - | - |
| 1788076034 | 24.44° C | 70% | 1016.7 hPa | 0 mm | - | - | - |
| 1788075734 | 24.44° C | 69% | 1016.6 hPa | 0 mm | - | - | - |
| 1788075434 | 23.89° C | 70% | 1016.5 hPa | 0 mm | - | - | - |
| 1788075135 | 23.33° C | 72% | 1016.7 hPa | 0 mm | - | - | - |
| 1788074835 | 22.78° C | 75% | 1016.4 hPa | 0 mm | - | - | - |
| 1788074543 | 22.22° C | 79% | 1016.5 hPa | 0 mm | - | - | - |
| 1788074234 | 21.67° C | 83% | 1016.5 hPa | 0 mm | - | - | - |
| 1788073934 | 21.11° C | 85% | 1016.5 hPa | 0 mm | - | - | - |
| 1788073634 | 20.56° C | 86% | 1016.4 hPa | 0 mm | - | - | - |
| 1788073335 | 20.56° C | 88% | 1016.4 hPa | 0 mm | - | - | - |
| 1788073034 | 20.56° C | 89% | 1016.3 hPa | 0 mm | - | - | - |
| 1788072734 | 20.56° C | 89% | 1016.1 hPa | 0 mm | - | - | - |
| 1788072454 | 20° C | 89% | 1016.1 hPa | 0 mm | - | - | - |
| 1788072135 | 20° C | 89% | 1016 hPa | 0 mm | - | - | - |
| 1788071835 | 20.56° C | 90% | 1016.1 hPa | 0 mm | - | - | - |
| 1788071552 | 20.56° C | 90% | 1015.9 hPa | 0 mm | - | - | - |
| 1788071235 | 19.44° C | 90% | 1016.1 hPa | 0 mm | - | - | - |
| 1788070935 | 19.44° C | 90% | 1016.2 hPa | 0 mm | - | - | - |
| 1788070655 | 20.56° C | 90% | 1016.2 hPa | 0 mm | - | - | - |
| 1788070334 | 19.44° C | 90% | 1016 hPa | 0 mm | - | - | - |
* Rain latest hour (hover to see other rain measurements)
** Current wind speed in m/s (hover to see current wind gust speed)